When you browse on this site, cookies collect data to enhance your experience and personalize the content and advertising you see.
Visit our Privacy Policy to learn more. By continuing to use the site, you agree to this use of cookies and data.
  • In Latvia
  • List of Countries
  • For 7 days
  • Water Temperature
  • Weather Map
  • Weather Widgets
  • user-avatar
    Login

    Hourly Weather Louangphabang

    Today, 18 September, Wednesday

    Time Temperature Precipitation Wind Pressure Humidity
    00:00 +22°C° 0.1 mm 0 mps 697 mmHg 86%
    01:00 +21°C° 0 mm 0 mps 697 mmHg 95%
    02:00 +20°C° 1 mm 0 mps 697 mmHg 96%
    03:00 +20°C° 1 mm 0 mps 697 mmHg 97%
    04:00 +20°C° 1 mm 0 mps 696 mmHg 98%
    05:00 +20°C° 0 mm 0 mps 697 mmHg 98%
    06:00 +20°C° 0 mm 0 mps 698 mmHg 98%
    07:00 +21°C° 0 mm 0 mps 698 mmHg 97%
    08:00 +24°C° 0.1 mm 0 mps 699 mmHg 85%
    09:00 +26°C° 0.1 mm 0 mps 699 mmHg 73%
    10:00 +31°C° 0.1 mm 1 mps 699 mmHg 61%
    11:00 +32°C° 0 mm 1 mps 699 mmHg 54%
    12:00 +34°C° 0 mm 1 mps 698 mmHg 48%
    13:00 +35°C° 0 mm 1 mps 698 mmHg 41%
    14:00 +34°C° 0.1 mm 1 mps 697 mmHg 48%
    15:00 +33°C° 0.1 mm 1 mps 696 mmHg 55%
    16:00 +32°C° 0.1 mm 1 mps 696 mmHg 61%
    17:00 +30°C° 0.3 mm 1 mps 696 mmHg 69%
    18:00 +28°C° 0.3 mm 1 mps 696 mmHg 76%
    19:00 +26°C° 0.3 mm 1 mps 696 mmHg 83%
    20:00 +25°C° 0 mm 1 mps 697 mmHg 85%
    21:00 +25°C° 0 mm 1 mps 697 mmHg 86%
    22:00 +24°C° 0 mm 1 mps 698 mmHg 88%
    23:00 +22°C° 0.1 mm 0 mps 698 mmHg 89%

    Tomorrow, 19 September, Thursday

    Time Temperature Precipitation Wind Pressure Humidity
    00:00 +21°C° 0.1 mm 0 mps 697 mmHg 90%
    01:00 +21°C° 0.1 mm 0 mps 697 mmHg 92%
    02:00 +20°C° 0.1 mm 0 mps 697 mmHg 92%
    03:00 +20°C° 0.1 mm 0 mps 697 mmHg 93%
    04:00 +20°C° 0.1 mm 0 mps 697 mmHg 93%
    05:00 +20°C° 0 mm 0 mps 698 mmHg 92%
    06:00 +20°C° 0 mm 0 mps 698 mmHg 91%
    07:00 +21°C° 0 mm 0 mps 698 mmHg 89%
    08:00 +23°C° 0 mm 0 mps 699 mmHg 78%
    09:00 +28°C° 0 mm 1 mps 699 mmHg 66%
    10:00 +31°C° 0 mm 1 mps 700 mmHg 55%
    11:00 +31°C° 0.2 mm 1 mps 699 mmHg 56%
    12:00 +32°C° 0.2 mm 1 mps 699 mmHg 57%
    13:00 +32°C° 0.2 mm 1 mps 698 mmHg 58%
    14:00 +30°C° 0.5 mm 0 mps 697 mmHg 63%
    15:00 +29°C° 0.5 mm 0 mps 696 mmHg 68%
    16:00 +28°C° 0.5 mm 0 mps 696 mmHg 74%
    17:00 +26°C° 0.1 mm 0 mps 696 mmHg 79%
    18:00 +25°C° 0.1 mm 0 mps 696 mmHg 84%
    19:00 +25°C° 0.1 mm 1 mps 696 mmHg 89%
    20:00 +22°C° 0.1 mm 0 mps 697 mmHg 89%
    21:00 +22°C° 0.1 mm 0 mps 697 mmHg 90%
    22:00 +22°C° 0.1 mm 0 mps 698 mmHg 91%
    23:00 +21°C° 0.1 mm 0 mps 698 mmHg 92%

    Day after tomorrow, 20 September, Friday

    Time Temperature Precipitation Wind Pressure Humidity
    00:00 +21°C° 0.1 mm 0 mps 697 mmHg 93%
    01:00 +21°C° 0.1 mm 0 mps 697 mmHg 94%
    02:00 +20°C° 0.1 mm 0 mps 697 mmHg 95%
    03:00 +20°C° 0.1 mm 0 mps 697 mmHg 96%
    04:00 +20°C° 0.1 mm 0 mps 696 mmHg 97%
    05:00 +20°C° 0.1 mm 0 mps 697 mmHg 96%
    06:00 +20°C° 0.1 mm 0 mps 697 mmHg 95%
    07:00 +21°C° 0.1 mm 0 mps 698 mmHg 94%
    08:00 +23°C° 0.2 mm 0 mps 698 mmHg 86%
    09:00 +25°C° 0.2 mm 0 mps 698 mmHg 77%
    10:00 +28°C° 0.2 mm 0 mps 699 mmHg 68%
    11:00 +28°C° 0.5 mm 0 mps 698 mmHg 67%
    12:00 +29°C° 0.5 mm 0 mps 697 mmHg 65%
    13:00 +30°C° 0.5 mm 0 mps 696 mmHg 63%
    14:00 +30°C° 0.5 mm 0 mps 696 mmHg 65%
    15:00 +29°C° 0.5 mm 0 mps 695 mmHg 67%
    16:00 +30°C° 0.5 mm 1 mps 694 mmHg 69%
    17:00 +29°C° 0.1 mm 1 mps 695 mmHg 75%
    18:00 +27°C° 0.1 mm 1 mps 695 mmHg 80%
    19:00 +25°C° 0.1 mm 1 mps 695 mmHg 86%
    20:00 +25°C° 0 mm 1 mps 696 mmHg 87%
    21:00 +22°C° 0 mm 0 mps 696 mmHg 88%
    22:00 +22°C° 0 mm 0 mps 697 mmHg 88%
    23:00 +21°C° 0.2 mm 0 mps 697 mmHg 89%

    21 September, Saturday

    Time Temperature Precipitation Wind Pressure Humidity
    00:00 +21°C° 0.2 mm 0 mps 696 mmHg 91%
    01:00 +21°C° 0.2 mm 0 mps 696 mmHg 92%
    02:00 +21°C° 0.2 mm 0 mps 696 mmHg 93%
    03:00 +20°C° 0.2 mm 0 mps 696 mmHg 94%
    04:00 +20°C° 0.2 mm 0 mps 696 mmHg 95%
    05:00 +20°C° 0.1 mm 0 mps 696 mmHg 94%
    06:00 +20°C° 0.1 mm 0 mps 697 mmHg 93%
    07:00 +21°C° 0.1 mm 0 mps 697 mmHg 92%
    08:00 +23°C° 0.1 mm 0 mps 698 mmHg 81%
    09:00 +26°C° 0.1 mm 0 mps 698 mmHg 70%
    10:00 +28°C° 0.1 mm 0 mps 699 mmHg 58%
    11:00 +31°C° 0.2 mm 1 mps 698 mmHg 56%
    12:00 +31°C° 0.2 mm 1 mps 698 mmHg 54%
    13:00 +32°C° 0.2 mm 1 mps 697 mmHg 52%
    14:00 +31°C° 0.7 mm 1 mps 697 mmHg 65%
    15:00 +27°C° 0.7 mm 0 mps 696 mmHg 77%
    16:00 +26°C° 0.7 mm 0 mps 695 mmHg 90%
    17:00 +24°C° 0.9 mm 0 mps 696 mmHg 92%
    18:00 +23°C° 0.9 mm 0 mps 696 mmHg 94%
    19:00 +21°C° 0.9 mm 0 mps 696 mmHg 97%
    20:00 +21°C° 0.4 mm 0 mps 697 mmHg 97%
    21:00 +21°C° 0.4 mm 0 mps 698 mmHg 97%
    22:00 +20°C° 0.4 mm 0 mps 698 mmHg 98%
    23:00 +20°C° 0.2 mm 0 mps 698 mmHg 98%

    22 September, Sunday

    Time Temperature Precipitation Wind Pressure Humidity
    00:00 +22°C° 0.2 mm 1 mps 698 mmHg 98%
    01:00 +22°C° 0.2 mm 1 mps 698 mmHg 98%
    02:00 +20°C° 0.1 mm 0 mps 698 mmHg 98%
    03:00 +19°C° 0.1 mm 0 mps 698 mmHg 98%
    04:00 +19°C° 0.1 mm 0 mps 698 mmHg 98%
    05:00 +19°C° 0 mm 0 mps 698 mmHg 98%
    06:00 +19°C° 0 mm 0 mps 699 mmHg 98%
    07:00 +19°C° 0 mm 0 mps 699 mmHg 98%
    08:00 +24°C° 0 mm 1 mps 700 mmHg 83%
    09:00 +26°C° 0 mm 1 mps 700 mmHg 68%
    10:00 +29°C° 0 mm 2 mps 701 mmHg 54%
    11:00 +29°C° 0 mm 1 mps 700 mmHg 52%
    12:00 +30°C° 0 mm 1 mps 700 mmHg 49%
    13:00 +31°C° 0 mm 1 mps 699 mmHg 47%
    14:00 +30°C° 0 mm 1 mps 699 mmHg 49%
    15:00 +30°C° 0 mm 1 mps 698 mmHg 51%
    16:00 +30°C° 0 mm 1 mps 698 mmHg 53%
    17:00 +28°C° 0 mm 1 mps 698 mmHg 60%
    18:00 +26°C° 0 mm 1 mps 698 mmHg 66%
    19:00 +24°C° 0 mm 1 mps 698 mmHg 73%
    20:00 +24°C° 0 mm 1 mps 699 mmHg 74%
    21:00 +23°C° 0 mm 1 mps 700 mmHg 76%
    22:00 +23°C° 0 mm 1 mps 700 mmHg 77%
    23:00 +22°C° 0 mm 1 mps 700 mmHg 78%

    23 September, Monday

    Time Temperature Precipitation Wind Pressure Humidity
    00:00 +22°C° 0 mm 1 mps 700 mmHg 80%
    01:00 +21°C° 0 mm 1 mps 700 mmHg 81%
    02:00 +21°C° 0 mm 1 mps 700 mmHg 83%
    03:00 +20°C° 0 mm 1 mps 699 mmHg 84%
    04:00 +20°C° 0 mm 1 mps 699 mmHg 86%
    05:00 +20°C° 0 mm 1 mps 700 mmHg 85%
    06:00 +20°C° 0 mm 1 mps 700 mmHg 84%
    07:00 +20°C° 0 mm 1 mps 700 mmHg 83%
    08:00 +23°C° 0 mm 1 mps 701 mmHg 71%
    09:00 +26°C° 0 mm 1 mps 701 mmHg 59%
    10:00 +28°C° 0 mm 1 mps 702 mmHg 46%
    11:00 +30°C° 0 mm 1 mps 701 mmHg 43%
    12:00 +31°C° 0 mm 1 mps 701 mmHg 39%
    13:00 +32°C° 0 mm 1 mps 700 mmHg 35%
    14:00 +32°C° 0 mm 1 mps 700 mmHg 37%
    15:00 +32°C° 0 mm 1 mps 699 mmHg 39%
    16:00 +32°C° 0 mm 1 mps 699 mmHg 41%
    17:00 +29°C° 0 mm 1 mps 699 mmHg 50%
    18:00 +27°C° 0 mm 1 mps 699 mmHg 59%
    19:00 +22°C° 0 mm 0 mps 699 mmHg 69%
    20:00 +24°C° 0 mm 1 mps 699 mmHg 70%
    21:00 +24°C° 0 mm 1 mps 700 mmHg 71%
    22:00 +23°C° 0 mm 1 mps 701 mmHg 72%
    23:00 +22°C° 0 mm 1 mps 701 mmHg 74%
    Show more